Time,TemperatureF,DewpointF,PressureIn,WindDirection,WindDirectionDegrees,WindSpeedMPH,WindSpeedGustMPH,Humidity,HourlyPrecipIn,Conditions,Clouds,dailyrainin,SoftwareType,DateUTC
2013-02-09 00:01:00,22.0,16.0,-100.00,NW,309,5.0,10.0,77,0.00,,,-99.99,,2013-02-09 07:01:00,
2013-02-09 00:11:00,22.0,16.0,-100.00,NW,304,5.0,9.0,77,0.00,,,-99.99,,2013-02-09 07:11:00,
2013-02-09 00:21:00,22.0,16.0,-100.00,NW,304,5.0,9.0,77,0.00,,,-99.99,,2013-02-09 07:21:00,
2013-02-09 00:31:00,22.0,16.0,-100.00,NW,304,5.0,9.0,77,0.00,,,-99.99,,2013-02-09 07:31:00,
2013-02-09 00:42:00,21.0,15.0,-100.00,WNW,302,3.0,5.0,78,0.00,,,-99.99,,2013-02-09 07:42:00,
2013-02-09 00:52:00,21.0,15.0,-100.00,West,274,2.0,5.0,78,0.00,,,-99.99,,2013-02-09 07:52:00,
2013-02-09 01:01:00,21.0,15.0,-100.00,West,274,2.0,5.0,78,0.00,,,-99.99,,2013-02-09 08:01:00,
2013-02-09 01:11:00,21.0,15.0,-100.00,SW,219,1.0,2.0,78,0.00,,,-99.99,,2013-02-09 08:11:00,
2013-02-09 01:21:00,21.0,15.0,-100.00,SW,219,1.0,2.0,78,0.00,,,-99.99,,2013-02-09 08:21:00,
2013-02-09 01:31:00,21.0,15.0,-100.00,SW,219,1.0,2.0,78,0.00,,,-99.99,,2013-02-09 08:31:00,
2013-02-09 01:41:00,21.0,15.0,-100.00,ESE,112,1.0,3.0,78,0.00,,,-99.99,,2013-02-09 08:41:00,
2013-02-09 01:52:00,20.0,15.0,-100.00,ESE,109,0.0,2.0,78,0.00,,,-99.99,,2013-02-09 08:52:00,
2013-02-09 02:02:00,20.0,15.0,-100.00,ESE,109,0.0,2.0,78,0.00,,,-99.99,,2013-02-09 09:02:00,
2013-02-09 02:11:00,20.0,15.0,-100.00,ENE,76,1.0,2.0,80,0.00,,,-99.99,,2013-02-09 09:11:00,
2013-02-09 02:21:00,21.0,15.0,-100.00,WSW,237,1.0,3.0,77,0.00,,,-99.99,,2013-02-09 09:21:00,
2013-02-09 02:31:00,21.0,15.0,-100.00,WSW,237,1.0,3.0,77,0.00,,,-99.99,,2013-02-09 09:31:00,
2013-02-09 02:41:00,21.0,15.0,-100.00,WSW,237,1.0,3.0,77,0.00,,,-99.99,,2013-02-09 09:41:00,
2013-02-09 02:52:00,20.0,15.0,-100.00,ENE,66,1.0,2.0,79,0.00,,,-99.99,,2013-02-09 09:52:00,
2013-02-09 03:01:00,20.0,15.0,-100.00,ENE,66,1.0,2.0,79,0.00,,,-99.99,,2013-02-09 10:01:00,
2013-02-09 03:11:00,21.0,15.0,-100.00,NNE,18,1.0,3.0,77,0.00,,,-99.99,,2013-02-09 10:11:00,
2013-02-09 03:21:00,20.0,15.0,-100.00,WSW,258,2.0,5.0,78,0.00,,,-99.99,,2013-02-09 10:21:00,
2013-02-09 03:31:00,20.0,15.0,-100.00,WSW,258,2.0,5.0,78,0.00,,,-99.99,,2013-02-09 10:31:00,
2013-02-09 03:41:00,20.0,15.0,-100.00,ESE,107,2.0,3.0,79,0.00,,,-99.99,,2013-02-09 10:41:00,
2013-02-09 03:52:00,20.0,15.0,-100.00,ESE,107,2.0,3.0,79,0.00,,,-99.99,,2013-02-09 10:52:00,
2013-02-09 04:01:00,20.0,15.0,-100.00,ESE,107,2.0,3.0,79,0.00,,,-99.99,,2013-02-09 11:01:00,
2013-02-09 04:11:00,20.0,14.0,-100.00,ESE,121,1.0,2.0,80,0.00,,,-99.99,,2013-02-09 11:11:00,
2013-02-09 04:21:00,20.0,14.0,-100.00,ESE,121,1.0,2.0,80,0.00,,,-99.99,,2013-02-09 11:21:00,
2013-02-09 04:31:00,20.0,14.0,-100.00,ESE,121,1.0,2.0,80,0.00,,,-99.99,,2013-02-09 11:31:00,
2013-02-09 04:41:00,20.0,15.0,-100.00,WNW,291,2.0,5.0,79,0.00,,,-99.99,,2013-02-09 11:41:00,
2013-02-09 04:52:00,20.0,15.0,-100.00,WNW,291,2.0,5.0,79,0.00,,,-99.99,,2013-02-09 11:52:00,
2013-02-09 05:02:00,20.0,15.0,-100.00,WNW,291,2.0,5.0,79,0.00,,,-99.99,,2013-02-09 12:02:00,
2013-02-09 05:11:00,20.0,15.0,-100.00,West,280,2.0,4.0,79,0.00,,,-99.99,,2013-02-09 12:11:00,
2013-02-09 05:21:00,19.0,14.0,-100.00,WSW,241,2.0,2.0,81,0.00,,,-99.99,,2013-02-09 12:21:00,
2013-02-09 05:32:00,19.0,14.0,-100.00,WSW,241,2.0,2.0,81,0.00,,,-99.99,,2013-02-09 12:32:00,
2013-02-09 05:42:00,19.0,14.0,-100.00,SW,222,0.0,1.0,80,0.00,,,-99.99,,2013-02-09 12:42:00,
2013-02-09 05:52:00,18.0,14.0,-100.00,NW,312,1.0,4.0,81,0.00,,,-99.99,,2013-02-09 12:52:00,
2013-02-09 06:01:00,18.0,14.0,-100.00,NW,312,1.0,4.0,81,0.00,,,-99.99,,2013-02-09 13:01:00,
2013-02-09 06:11:00,18.0,14.0,-100.00,NW,312,1.0,4.0,81,0.00,,,-99.99,,2013-02-09 13:11:00,
2013-02-09 06:21:00,18.0,14.0,-100.00,East,88,2.0,4.0,83,0.00,,,-99.99,,2013-02-09 13:21:00,
2013-02-09 06:31:00,18.0,14.0,-100.00,East,88,2.0,4.0,83,0.00,,,-99.99,,2013-02-09 13:31:00,
2013-02-09 06:42:00,19.0,14.0,-100.00,NW,318,4.0,7.0,80,0.00,,,-99.99,,2013-02-09 13:42:00,
2013-02-09 06:52:00,20.0,14.0,-100.00,WNW,299,3.0,6.0,77,0.00,,,-99.99,,2013-02-09 13:52:00,
2013-02-09 07:01:00,20.0,14.0,-100.00,WNW,299,3.0,6.0,77,0.00,,,-99.99,,2013-02-09 14:01:00,
2013-02-09 07:11:00,20.0,14.0,-100.00,WNW,299,3.0,6.0,77,0.00,,,-99.99,,2013-02-09 14:11:00,
2013-02-09 07:21:00,19.0,13.0,-100.00,WNW,285,2.0,4.0,77,0.00,,,-99.99,,2013-02-09 14:21:00,
2013-02-09 07:31:00,19.0,13.0,-100.00,WNW,285,2.0,4.0,77,0.00,,,-99.99,,2013-02-09 14:31:00,
2013-02-09 07:42:00,19.0,13.0,-100.00,WNW,285,2.0,4.0,77,0.00,,,-99.99,,2013-02-09 14:42:00,
2013-02-09 07:52:00,19.0,13.0,-100.00,West,267,2.0,3.0,78,0.00,,,-99.99,,2013-02-09 14:52:00,
2013-02-09 08:01:00,19.0,13.0,-100.00,West,267,2.0,3.0,78,0.00,,,-99.99,,2013-02-09 15:01:00,
2013-02-09 08:11:00,19.0,13.0,-100.00,West,267,2.0,3.0,78,0.00,,,-99.99,,2013-02-09 15:11:00,
2013-02-09 08:21:00,19.0,13.0,-100.00,West,277,2.0,5.0,78,0.00,,,-99.99,,2013-02-09 15:21:00,
2013-02-09 08:31:00,19.0,13.0,-100.00,West,277,2.0,5.0,78,0.00,,,-99.99,,2013-02-09 15:31:00,
2013-02-09 08:41:00,18.0,13.0,-100.00,NW,306,3.0,5.0,78,0.00,,,-99.99,,2013-02-09 15:41:00,
2013-02-09 08:52:00,19.0,13.0,-100.00,SSW,202,1.0,3.0,77,0.00,,,-99.99,,2013-02-09 15:52:00,
2013-02-09 09:01:00,19.0,13.0,-100.00,SSW,202,1.0,3.0,77,0.00,,,-99.99,,2013-02-09 16:01:00,
2013-02-09 09:11:00,19.0,13.0,-100.00,NW,319,3.0,6.0,75,0.00,,,-99.99,,2013-02-09 16:11:00,
2013-02-09 09:21:00,19.0,13.0,-100.00,NW,319,3.0,6.0,75,0.00,,,-99.99,,2013-02-09 16:21:00,
2013-02-09 09:31:00,19.0,13.0,-100.00,NW,319,3.0,6.0,75,0.00,,,-99.99,,2013-02-09 16:31:00,
2013-02-09 09:41:00,20.0,13.0,-100.00,North,0,2.0,3.0,74,0.00,,,-99.99,,2013-02-09 16:41:00,
2013-02-09 09:52:00,20.0,13.0,-100.00,NNW,336,2.0,4.0,73,0.00,,,-99.99,,2013-02-09 16:52:00,
2013-02-09 10:01:00,20.0,13.0,-100.00,NNW,336,2.0,4.0,73,0.00,,,-99.99,,2013-02-09 17:01:00,
2013-02-09 10:11:00,21.0,13.0,-100.00,NNW,329,3.0,7.0,70,0.00,,,-99.99,,2013-02-09 17:11:00,
2013-02-09 10:21:00,22.0,13.0,-100.00,NW,306,4.0,6.0,69,0.00,,,-99.99,,2013-02-09 17:21:00,
2013-02-09 10:31:00,22.0,13.0,-100.00,NW,306,4.0,6.0,69,0.00,,,-99.99,,2013-02-09 17:31:00,
2013-02-09 10:41:00,22.0,13.0,-100.00,NW,306,4.0,6.0,69,0.00,,,-99.99,,2013-02-09 17:41:00,
2013-02-09 10:52:00,24.0,13.0,-100.00,NW,319,4.0,8.0,63,0.00,,,-99.99,,2013-02-09 17:52:00,
2013-02-09 11:01:00,24.0,13.0,-100.00,NW,319,4.0,8.0,63,0.00,,,-99.99,,2013-02-09 18:01:00,
2013-02-09 11:11:00,25.0,14.0,-100.00,NNW,328,4.0,7.0,62,0.00,,,-99.99,,2013-02-09 18:11:00,
2013-02-09 11:23:00,26.0,14.0,-100.00,NW,320,4.0,6.0,60,0.00,,,-99.99,,2013-02-09 18:23:00,
2013-02-09 11:31:00,26.0,14.0,-100.00,NW,320,4.0,6.0,60,0.00,,,-99.99,,2013-02-09 18:31:00,
2013-02-09 11:41:00,26.0,14.0,-100.00,NW,320,4.0,6.0,60,0.00,,,-99.99,,2013-02-09 18:41:00,
2013-02-09 11:52:00,26.0,15.0,-100.00,NW,315,1.0,3.0,64,0.00,,,-99.99,,2013-02-09 18:52:00,
2013-02-09 12:01:00,27.0,14.0,-100.00,WSW,250,2.0,4.0,58,0.00,,,-99.99,,2013-02-09 19:01:00,
2013-02-09 12:11:00,27.0,14.0,-100.00,WSW,250,2.0,4.0,58,0.00,,,-99.99,,2013-02-09 19:11:00,
2013-02-09 12:22:00,27.0,15.0,-100.00,WNW,292,4.0,8.0,59,0.00,,,-99.99,,2013-02-09 19:22:00,
2013-02-09 12:31:00,27.0,15.0,-100.00,WNW,292,4.0,8.0,59,0.00,,,-99.99,,2013-02-09 19:31:00,
2013-02-09 12:41:00,29.0,16.0,-100.00,WNW,292,4.0,8.0,57,0.00,,,-99.99,,2013-02-09 19:41:00,
2013-02-09 12:52:00,29.0,16.0,-100.00,WNW,292,4.0,8.0,57,0.00,,,-99.99,,2013-02-09 19:52:00,
2013-02-09 13:01:00,29.0,16.0,-100.00,WNW,292,4.0,8.0,57,0.00,,,-99.99,,2013-02-09 20:01:00,
2013-02-09 13:11:00,30.0,16.0,-100.00,West,272,4.0,11.0,56,0.00,,,-99.99,,2013-02-09 20:11:00,
2013-02-09 13:21:00,31.0,17.0,-100.00,West,267,4.0,8.0,55,0.00,,,-99.99,,2013-02-09 20:21:00,
2013-02-09 13:31:00,31.0,17.0,-100.00,West,267,4.0,8.0,55,0.00,,,-99.99,,2013-02-09 20:31:00,
2013-02-09 13:41:00,31.0,17.0,-100.00,West,267,4.0,8.0,55,0.00,,,-99.99,,2013-02-09 20:41:00,
2013-02-09 13:52:00,31.0,18.0,-100.00,West,274,3.0,8.0,59,0.00,,,-99.99,,2013-02-09 20:52:00,
2013-02-09 14:01:00,31.0,18.0,-100.00,West,274,3.0,8.0,59,0.00,,,-99.99,,2013-02-09 21:01:00,
2013-02-09 14:11:00,31.0,19.0,-100.00,WNW,298,5.0,7.0,61,0.00,,,-99.99,,2013-02-09 21:11:00,
2013-02-09 14:21:00,31.0,20.0,-100.00,NW,304,3.0,6.0,64,0.00,,,-99.99,,2013-02-09 21:21:00,
2013-02-09 14:31:00,31.0,20.0,-100.00,NW,304,3.0,6.0,64,0.00,,,-99.99,,2013-02-09 21:31:00,
2013-02-09 14:41:00,31.0,19.0,-100.00,WNW,284,6.0,11.0,61,0.00,,,-99.99,,2013-02-09 21:41:00,
2013-02-09 14:52:00,31.0,20.0,-100.00,West,270,4.0,7.0,62,0.00,,,-99.99,,2013-02-09 21:52:00,
2013-02-09 15:01:00,31.0,20.0,-100.00,West,270,4.0,7.0,62,0.00,,,-99.99,,2013-02-09 22:01:00,
2013-02-09 15:11:00,31.0,20.0,-100.00,WNW,294,4.0,7.0,62,0.00,,,-99.99,,2013-02-09 22:11:00,
2013-02-09 15:21:00,31.0,20.0,-100.00,WSW,244,3.0,6.0,64,0.00,,,-99.99,,2013-02-09 22:21:00,
2013-02-09 15:31:00,31.0,20.0,-100.00,WSW,244,3.0,6.0,64,0.00,,,-99.99,,2013-02-09 22:31:00,
2013-02-09 15:41:00,30.0,20.0,-100.00,West,281,4.0,7.0,66,0.00,,,-99.99,,2013-02-09 22:41:00,
2013-02-09 15:52:00,29.0,20.0,-100.00,WNW,296,5.0,10.0,67,0.00,,,-99.99,,2013-02-09 22:52:00,
2013-02-09 16:01:00,29.0,20.0,-100.00,WNW,296,5.0,10.0,67,0.00,,,-99.99,,2013-02-09 23:01:00,
2013-02-09 16:11:00,29.0,20.0,-100.00,WNW,285,4.0,8.0,69,0.00,,,-99.99,,2013-02-09 23:11:00,
2013-02-09 16:21:00,29.0,20.0,-100.00,WNW,285,4.0,8.0,69,0.00,,,-99.99,,2013-02-09 23:21:00,
2013-02-09 16:31:00,29.0,20.0,-100.00,WNW,285,4.0,8.0,69,0.00,,,-99.99,,2013-02-09 23:31:00,
2013-02-09 16:41:00,29.0,21.0,-100.00,West,260,2.0,7.0,71,0.00,,,-99.99,,2013-02-09 23:41:00,
2013-02-09 16:52:00,29.0,21.0,-100.00,WSW,257,2.0,4.0,71,0.00,,,-99.99,,2013-02-09 23:52:00,
2013-02-09 17:02:00,29.0,21.0,-100.00,WSW,257,2.0,4.0,71,0.00,,,-99.99,,2013-02-10 00:02:00,
2013-02-09 17:11:00,29.0,20.0,-100.00,WSW,256,2.0,4.0,68,0.00,,,-99.99,,2013-02-10 00:11:00,
2013-02-09 17:21:00,29.0,20.0,-100.00,WSW,256,2.0,4.0,68,0.00,,,-99.99,,2013-02-10 00:21:00,
2013-02-09 17:31:00,29.0,20.0,-100.00,WSW,256,2.0,4.0,68,0.00,,,-99.99,,2013-02-10 00:31:00,
2013-02-09 17:41:00,28.0,21.0,-100.00,West,278,3.0,5.0,74,0.00,,,-99.99,,2013-02-10 00:41:00,
2013-02-09 17:52:00,27.0,21.0,-100.00,WSW,241,2.0,3.0,77,0.00,,,-99.99,,2013-02-10 00:52:00,
2013-02-09 18:01:00,27.0,21.0,-100.00,WSW,241,2.0,3.0,77,0.00,,,-99.99,,2013-02-10 01:01:00,
2013-02-09 18:11:00,27.0,21.0,-100.00,WNW,285,3.0,6.0,77,0.00,,,-99.99,,2013-02-10 01:11:00,
2013-02-09 18:21:00,26.0,20.0,-100.00,WSW,248,2.0,4.0,78,0.00,,,-99.99,,2013-02-10 01:21:00,
2013-02-09 18:31:00,26.0,20.0,-100.00,WSW,248,2.0,4.0,78,0.00,,,-99.99,,2013-02-10 01:31:00,
2013-02-09 18:41:00,26.0,20.0,-100.00,NW,315,2.0,3.0,79,0.00,,,-99.99,,2013-02-10 01:41:00,
2013-02-09 18:52:00,26.0,20.0,-100.00,WSW,250,1.0,4.0,80,0.00,,,-99.99,,2013-02-10 01:52:00,
2013-02-09 19:01:00,26.0,20.0,-100.00,WSW,250,1.0,4.0,80,0.00,,,-99.99,,2013-02-10 02:01:00,
2013-02-09 19:11:00,25.0,20.0,-100.00,West,274,3.0,6.0,80,0.00,,,-99.99,,2013-02-10 02:11:00,
2013-02-09 19:22:00,25.0,20.0,-100.00,West,260,3.0,6.0,81,0.00,,,-99.99,,2013-02-10 02:22:00,
2013-02-09 19:31:00,25.0,20.0,-100.00,West,260,3.0,6.0,81,0.00,,,-99.99,,2013-02-10 02:31:00,
2013-02-09 19:41:00,25.0,20.0,-100.00,West,260,3.0,6.0,81,0.00,,,-99.99,,2013-02-10 02:41:00,
2013-02-09 19:52:00,25.0,20.0,-100.00,WSW,246,2.0,3.0,80,0.00,,,-99.99,,2013-02-10 02:52:00,
2013-02-09 20:01:00,25.0,20.0,-100.00,WSW,246,2.0,3.0,80,0.00,,,-99.99,,2013-02-10 03:01:00,
2013-02-09 20:11:00,24.0,19.0,-100.00,SW,229,2.0,2.0,81,0.00,,,-99.99,,2013-02-10 03:11:00,
2013-02-09 20:21:00,24.0,19.0,-100.00,West,263,1.0,2.0,83,0.00,,,-99.99,,2013-02-10 03:21:00,
2013-02-09 20:32:00,24.0,19.0,-100.00,West,263,1.0,2.0,83,0.00,,,-99.99,,2013-02-10 03:32:00,
2013-02-09 20:41:00,24.0,19.0,-100.00,WSW,240,2.0,4.0,83,0.00,,,-99.99,,2013-02-10 03:41:00,
2013-02-09 20:52:00,24.0,19.0,-100.00,WSW,240,2.0,4.0,83,0.00,,,-99.99,,2013-02-10 03:52:00,
2013-02-09 21:01:00,24.0,19.0,-100.00,WSW,240,2.0,4.0,83,0.00,,,-99.99,,2013-02-10 04:01:00,
2013-02-09 21:11:00,24.0,20.0,-100.00,ESE,120,2.0,7.0,84,0.00,,,-99.99,,2013-02-10 04:11:00,
2013-02-09 21:21:00,25.0,20.0,-100.00,NW,326,2.0,6.0,82,0.00,,,-99.99,,2013-02-10 04:21:00,
2013-02-09 21:30:00,24.0,20.0,-100.00,NW,322,4.0,8.0,82,0.00,,,-99.99,,2013-02-10 04:30:00,
2013-02-09 21:32:00,25.0,20.0,-100.00,NW,326,2.0,6.0,82,0.00,,,-99.99,,2013-02-10 04:32:00,
2013-02-09 21:41:00,24.0,20.0,-100.00,NW,306,4.0,7.0,82,0.00,,,-99.99,,2013-02-10 04:41:00,
2013-02-09 21:52:00,24.0,20.0,-100.00,NW,306,4.0,7.0,82,0.00,,,-99.99,,2013-02-10 04:52:00,
2013-02-09 22:01:00,24.0,20.0,-100.00,NW,322,4.0,8.0,82,0.00,,,-99.99,,2013-02-10 05:01:00,
2013-02-09 22:11:00,24.0,20.0,-100.00,NW,322,4.0,8.0,82,0.00,,,-99.99,,2013-02-10 05:11:00,
2013-02-09 22:22:00,24.0,20.0,-100.00,NW,322,4.0,8.0,82,0.00,,,-99.99,,2013-02-10 05:22:00,
2013-02-09 22:42:00,25.0,19.0,-100.00,West,274,2.0,5.0,81,0.00,,,-99.99,,2013-02-10 05:42:00,
2013-02-09 22:52:00,24.0,19.0,-100.00,NW,313,3.0,6.0,81,0.00,,,-99.99,,2013-02-10 05:52:00,
2013-02-09 23:01:00,24.0,19.0,-100.00,NW,313,3.0,6.0,81,0.00,,,-99.99,,2013-02-10 06:01:00,
2013-02-09 23:11:00,23.0,18.0,-100.00,West,278,2.0,6.0,82,0.00,,,-99.99,,2013-02-10 06:11:00,
2013-02-09 23:21:00,23.0,18.0,-100.00,West,278,2.0,6.0,82,0.00,,,-99.99,,2013-02-10 06:21:00,
2013-02-09 23:32:00,23.0,18.0,-100.00,West,278,2.0,6.0,82,0.00,,,-99.99,,2013-02-10 06:32:00,
2013-02-09 23:42:00,24.0,18.0,-100.00,ESE,114,3.0,6.0,79,0.00,,,-99.99,,2013-02-10 06:42:00,
2013-02-09 23:52:00,24.0,17.0,-100.00,WNW,296,2.0,5.0,77,0.00,,,-99.99,,2013-02-10 06:52:00,